Location: Sungai Bunut
(2.6333°N, 113.7333°E)
Time: 07:56:49
(UTC+00:00)

Cosmos 2181 Rocket - Pass Details

Date: 29 May 2022
Orbit: 952 x 1015 km, 82.9° (Epoch: 30 June)

Event Time Altitude Azimuth Distance (km) Brightness Sun altitude
Exits shadow 19:05:24 11° 1° (N) 2,641 6.5 -43.4°
Drops below altitude 10° 19:05:32 10° 1° (N) 2,694 6.6 -43.3°
Sets 19:08:03 0° 2° (N) 3,645 7.4 -42.8°
